Regional Weather Roundup
Issued by NWS

Home | Current Version | Previous Version | Graphics & Text | Print | Product List | Glossary On
Versions: 1 2 3 4 5 6 7 8 9 10 11 12 13 14 15 16 17 18 19 20 21 22 23 24 25 26 27
000
ASUS45 KCYS 211510
RWRWY

WYOMING REGIONAL WEATHER ROUNDUP
NATIONAL WEATHER SERVICE CHEYENNE WY
900 AM MDT SAT OCT 21 2017

NOTE:  "FAIR" INDICATES FEW OR NO CLOUDS BELOW 12,000 FEET
WITH NO SIGNIFICANT WEATHER AND/OR OBSTRUCTIONS TO VISIBILITY.

WYZ001-211600-
YELLOWSTONE NATIONAL PARK

CITY           SKY/WX    TMP DP  RH WIND       PRES   REMARKS
LK YELLOWSTONE   N/A     23  20  88 W6        30.02R WCI  16
W YELLOWSTONE  NOT AVBL

$$
WYZ002>013-054>058-071-098>099-211600-
NORTHERN WYOMING

CITY           SKY/WX    TMP DP  RH WIND       PRES   REMARKS
JACKSON        CLOUDY    29  23  78 S12       30.06R WCI  19
CODY           FAIR      40  17  39 SW14      29.93R WCI  32
GREYBULL       FAIR      34  22  61 SE5       29.92R WCI  30
WORLAND        FAIR      35  25  66 SE7       29.93R WCI  29
SHERIDAN       FAIR      44  19  36 W8        29.86R
BUFFALO        FAIR      43  11  27 W6        29.87R
GILLETTE       FAIR      43  17  35 NW15G23   29.85R
HULETT         FAIR      41  23  48 W8        29.84R
NEWCASTLE      FAIR      41  21  45 NW15G22   29.85R

$$
WYZ014>020-022>026-101>103-211600-
CENTRAL WYOMING

CITY           SKY/WX    TMP DP  RH WIND       PRES   REMARKS
BIG PINEY      FAIR      26  20  77 CALM      30.08R
PINEDALE       CLOUDY    27  21  80 W5        30.08R WCI  21
DUBOIS         CLOUDY    28  19  69 NW12      29.99R WCI  18
LANDER         FAIR      34  19  54 E6        29.94R WCI  29
RIVERTON       FAIR      38  18  44 NW18G26   29.96R WCI  28
CASPER         FAIR      39  17  41 W10G17    29.93R WCI  32
DOUGLAS        FAIR      41  17  38 W24G33    29.90R

$$
WYZ021-027>030-104>119-211600-
SOUTHERN WYOMING

CITY           SKY/WX    TMP DP  RH WIND       PRES   REMARKS
EVANSTON       FAIR      28  23  81 SW15      30.12R WCI  16
FORT BRIDGER   FAIR      29  22  76 SW15      30.14R WCI  17
ROCK SPRINGS   FAIR      28  18  66 SW20      30.09R WCI  15
DIXON          FAIR      21  17  86 CALM      30.13R
RAWLINS        FAIR      30  19  63 W21G29    30.01R WCI  17
SARATOGA       FAIR      28  23  80 W14G26    30.04R WCI  17
LARAMIE        FAIR      30  20  66 W23G31    29.97R WCI  17
CHEYENNE       FAIR      38  17  42 W26G39    29.94R WCI  26
TORRINGTON     FAIR      44  21  40 W14       29.90R
PINE BLUFFS    FAIR      41  19  42 MISG      29.92R

$$




USA.gov is the U.S. government's official web portal to all federal, state and local government web resources and services.